Stations météo

réclame
Mon MeteoGroup
Umeå Flygplats, Suède (2286): Température de l'air & dewpoint: 17.11.2017 12:00:00 - 23.11.2017 12:00:00 (CET)Umeå Flygplats, Suède (2286): Vitesse du vent: 17.11.2017 12:00:00 - 23.11.2017 12:00:00 (CET)Umeå Flygplats, Suède (2286): Direction du vent: 17.11.2017 12:00:00 - 23.11.2017 12:00:00 (CET)Umeå Flygplats, Suède (2286): reduced air pressure: 17.11.2017 12:00:00 - 23.11.2017 12:00:00 (CET)Umeå Flygplats, Suède (2286): visibility: 17.11.2017 12:00:00 - 23.11.2017 12:00:00 (CET)
Date & Time tt [°C] td [°C] ff [km/h] ff [knt] dd ppp [hPa] vv [km]
23.11.2017 12:00:00 -1,0 -2,0 44 24 ESE - 0,4
23.11.2017 11:00:00 -1,1 -1,7 44 24 ESE 1001,6 1,0
23.11.2017 10:00:00 -1,0 -1,6 44 24 ESE 1002,8 1,2
23.11.2017 09:00:00 -1,3 -2,1 48 26 ESE 1004,3 1,4
23.11.2017 08:00:00 -1,3 -2,0 41 22 ESE 1005,1 1,2
23.11.2017 07:00:00 -1,5 -2,2 46 25 ESE 1006,3 1,2
23.11.2017 06:00:00 -1,7 -2,8 41 22 ESE 1007,4 2,9
23.11.2017 05:00:00 -1,5 -3,2 39 21 ESE 1008,3 10
23.11.2017 04:00:00 -1,7 -3,4 37 20 ESE 1009,2 10
23.11.2017 03:00:00 -1,7 -3,3 31 17 ESE 1010,0 10
23.11.2017 02:00:00 -2,2 -3,8 35 19 ESE 1011,3 10
23.11.2017 01:00:00 -1,8 -3,5 29 16 ESE 1012,1 10
23.11.2017 00:00:00 -1,4 -3,1 26 14 ESE 1012,8 10
22.11.2017 23:00:00 -1,4 -3,0 26 14 ESE 1013,5 10
22.11.2017 22:00:00 -1,1 -2,7 26 14 ESE 1013,9 10
22.11.2017 21:00:00 -0,9 -2,3 24 13 E 1014,3 10
22.11.2017 20:00:00 -0,7 -2,3 24 13 E 1014,5 10
22.11.2017 19:00:00 -0,4 -2,1 26 14 ESE 1014,6 10
22.11.2017 18:00:00 -0,1 -2,2 24 13 ESE 1014,9 10
22.11.2017 17:00:00 -0,3 -2,2 21 11 ESE 1015,2 10
22.11.2017 16:00:00 -0,3 -1,7 21 11 SE 1015,3 10
22.11.2017 15:00:00 -0,3 -1,4 18 10 SE 1015,4 5
22.11.2017 14:00:00 -0,5 -1,1 11 6 E 1015,4 2,6
22.11.2017 13:00:00 -0,6 -1,6 13 7 E 1015,4 2,5
22.11.2017 12:00:00 -0,6 -2,5 11 6 E 1015,5 10
22.11.2017 11:00:00 -0,9 -2,6 11 6 E 1015,7 10
22.11.2017 10:00:00 -1,0 -2,4 11 6 E 1015,7 10
22.11.2017 09:00:00 -1,1 -2,5 11 6 E 1015,3 10
22.11.2017 08:00:00 -1,2 -2,5 8 4 ENE 1015,1 10
22.11.2017 07:00:00 -1,3 -2,7 9 5 E 1014,9 10
22.11.2017 06:00:00 -1,2 -2,8 8 4 ENE 1014,6 10
22.11.2017 05:00:00 -1,4 -2,4 5 3 NE 1014,7 10
22.11.2017 04:00:00 -1,4 -2,1 8 4 NNE 1014,7 10
22.11.2017 03:00:00 -1,3 -2,0 8 4 NNE 1014,5 10
22.11.2017 02:00:00 -1,4 -1,8 8 4 NE 1014,4 10
22.11.2017 01:00:00 -1,5 -2,1 5 3 NNE 1014,4 10
22.11.2017 00:00:00 -1,3 -2,0 8 4 ENE 1014,2 10
21.11.2017 23:00:00 -1,3 -1,7 5 3 NE 1014,2 10
21.11.2017 22:00:00 -1,2 -1,8 8 4 NNE 1013,9 10
21.11.2017 21:00:00 -1,2 -1,5 8 4 NNE 1013,6 10
21.11.2017 20:00:00 -1,3 -1,4 5 3 - 1013,3 4,2
21.11.2017 19:00:00 -1,5 -1,6 5 3 N 1013,3 8
21.11.2017 18:00:00 -1,6 -1,9 8 4 N 1013,2 2,1
21.11.2017 17:00:00 -2,0 -2,4 8 4 NNW 1012,9 10
21.11.2017 16:00:00 -1,7 -2,1 9 5 N 1012,9 10
21.11.2017 15:00:00 -1,9 -2,2 8 4 NNW 1012,7 7
21.11.2017 14:00:00 -2,9 -3,2 9 5 NW 1012,6 0,7
21.11.2017 13:00:00 -2,9 -3,3 9 5 NW 1012,5 3,7
21.11.2017 12:00:00 -3,6 -4,3 9 5 NW 1012,5 10
21.11.2017 11:00:00 -4,1 -4,6 11 6 WNW 1012,5 8
21.11.2017 10:00:00 -4,4 -4,9 11 6 NW 1012,3 2,0
21.11.2017 09:00:00 -4,7 -5,8 13 7 NW 1012,1 10
21.11.2017 08:00:00 -5,6 -6,6 13 7 NNW 1011,7 10
21.11.2017 07:00:00 -5,8 -7,0 11 6 NW 1011,4 10
21.11.2017 06:00:00 -6,7 -7,8 13 7 NW 1011,4 10
21.11.2017 05:00:00 -6,3 -7,2 9 5 NW 1011,3 7
21.11.2017 04:00:00 -6,0 -6,9 11 6 NNW 1011,3 5
21.11.2017 03:00:00 -6,4 -7,3 11 6 NNW 1011,3 2,0
21.11.2017 02:00:00 -6,7 -8,1 13 7 NNW 1011,1 8
21.11.2017 01:00:00 -6,7 -7,9 15 8 NW 1011,1 8
21.11.2017 00:00:00 -6,8 -8,0 13 7 NNW 1011,1 3,0
20.11.2017 23:00:00 -6,7 -8,1 15 8 NNW 1011,1 5
20.11.2017 22:00:00 -6,7 -8,1 13 7 NW 1010,8 6
20.11.2017 21:00:00 -6,6 -8,0 15 8 NNW 1010,5 3,0
20.11.2017 20:00:00 -6,4 -7,8 13 7 NW 1010,3 4,6
20.11.2017 19:00:00 -6,2 -7,6 13 7 NNW 1010,0 5
20.11.2017 18:00:00 -5,6 -7,1 16 9 NW 1009,8 4,0
20.11.2017 17:00:00 -5,6 -7,1 15 8 NNW 1009,8 5
20.11.2017 16:00:00 -5,4 -6,9 15 8 NNW 1009,7 6
20.11.2017 15:00:00 -5,1 -6,5 15 8 NNW 1009,6 2,8
20.11.2017 14:00:00 -5,0 -6,7 18 10 NNW 1009,2 4,0
20.11.2017 13:00:00 -4,6 -6,7 16 9 NNW 1009,1 10
20.11.2017 12:00:00 -4,7 -6,8 16 9 NNW 1008,9 10
20.11.2017 11:00:00 -4,8 -6,9 15 8 NNW 1008,8 6
20.11.2017 10:00:00 -5,0 -6,5 21 11 NNW 1008,8 4,9
20.11.2017 09:00:00 -4,9 -6,1 16 9 NNW 1008,4 3,0
20.11.2017 08:00:00 -4,6 -6,1 21 11 NNW 1007,8 8
20.11.2017 07:00:00 -4,2 -6,0 18 10 NNW 1007,4 10
20.11.2017 06:00:00 -4,2 -6,0 18 10 NNW 1007,0 10
20.11.2017 05:00:00 -4,4 -5,6 16 9 N 1006,9 3,3
20.11.2017 04:00:00 -4,4 -5,9 18 10 N 1006,9 8
20.11.2017 03:00:00 -4,4 -5,9 18 10 N 1006,4 10
20.11.2017 02:00:00 -4,2 -5,7 18 10 N 1006,1 6
20.11.2017 01:00:00 -4,0 -5,5 16 9 N 1006,0 7
20.11.2017 00:00:00 -4,0 -5,5 18 10 N 1005,6 6
19.11.2017 23:00:00 -3,6 -5,6 21 11 N 1005,5 10
19.11.2017 22:00:00 -3,3 -5,6 22 12 N 1005,1 10
19.11.2017 21:00:00 -3,3 -5,3 22 12 N 1004,8 10
19.11.2017 20:00:00 -3,3 -5,0 24 13 N 1004,1 9
19.11.2017 19:00:00 -3,0 -4,9 24 13 N 1003,7 10
19.11.2017 18:00:00 -2,8 -4,7 22 12 N 1003,4 10
19.11.2017 17:00:00 -2,7 -4,6 21 11 N 1003,1 10
19.11.2017 16:00:00 -2,6 -4,5 22 12 N 1002,8 8
19.11.2017 15:00:00 -2,5 -4,7 22 12 N 1002,6 10
19.11.2017 14:00:00 -2,4 -4,6 24 13 N 1001,9 10
19.11.2017 13:00:00 -2,2 -4,4 21 11 N 1001,4 10
19.11.2017 12:00:00 -2,3 -4,0 24 13 N 1001,1 10
19.11.2017 11:00:00 -2,2 -3,8 24 13 N 1000,5 10
19.11.2017 10:00:00 -2,4 -3,7 22 12 N 1000,1 9
19.11.2017 09:00:00 -2,9 -3,7 22 12 N 999,4 3,0
19.11.2017 08:00:00 -3,5 -4,0 18 10 N 998,9 2,5
19.11.2017 07:00:00 -4,0 -4,5 22 12 N 998,4 2,0
19.11.2017 06:00:00 -4,1 -5,5 22 12 N 998,2 10
19.11.2017 05:00:00 -4,2 -5,6 26 14 N 997,9 10
19.11.2017 04:00:00 -4,1 -5,5 24 13 N 997,7 10
19.11.2017 03:00:00 -4,2 -5,4 24 13 N 997,3 7
19.11.2017 02:00:00 -4,5 -5,3 24 13 N 997,6 7
19.11.2017 01:00:00 -4,3 -6,0 22 12 N 997,7 10
19.11.2017 00:00:00 -4,6 -6,1 21 11 N 997,7 10
18.11.2017 23:00:00 -4,9 -6,4 18 10 N 997,7 10
18.11.2017 22:00:00 -5,0 -6,5 21 11 NNW 997,6 10
18.11.2017 21:00:00 -5,4 -6,6 18 10 N 997,9 10
18.11.2017 20:00:00 -5,5 -7,0 16 9 N 998,0 10
18.11.2017 19:00:00 -5,4 -6,6 22 12 N 997,9 10
18.11.2017 18:00:00 -5,8 -6,9 18 10 N 997,5 10
18.11.2017 17:00:00 -5,9 -7,1 13 7 N 997,7 10
18.11.2017 16:00:00 -5,5 -6,9 11 6 N 997,7 10
18.11.2017 15:00:00 -5,0 -6,7 9 5 NNE 997,2 10
18.11.2017 14:00:00 -4,9 -6,4 8 4 N 996,8 10
18.11.2017 13:00:00 -4,6 -6,0 5 3 N 996,9 10
18.11.2017 12:00:00 -4,2 -5,7 8 4 N 996,7 10
18.11.2017 11:00:00 -4,5 -5,3 9 5 NNW 996,3 10
18.11.2017 10:00:00 -5,5 -6,0 5 3 NW 996,5 10
18.11.2017 09:00:00 -6,3 -6,6 4 2 NNW 996,1 10
18.11.2017 08:00:00 -6,5 -6,8 0 0 N 995,3 10
18.11.2017 07:00:00 -6,5 -6,8 0 0 N 995,2 10
18.11.2017 06:00:00 -7,5 -7,9 4 2 ESE 995,2 10
18.11.2017 05:00:00 -6,3 -6,6 5 3 SSW 995,1 10
18.11.2017 04:00:00 -5,0 -5,4 4 2 - 994,7 10
18.11.2017 03:00:00 -3,5 -4,5 5 3 W 994,4 10
18.11.2017 02:00:00 -2,7 -3,8 11 6 WSW 994,5 10
18.11.2017 01:00:00 -1,9 -3,3 9 5 WSW 994,4 10
18.11.2017 00:00:00 -1,8 -2,9 13 7 WSW 994,4 10
17.11.2017 23:00:00 -1,5 -2,6 2 1 SE 994,3 10
17.11.2017 22:00:00 -1,3 -2,7 8 4 SW 994,3 10
17.11.2017 21:00:00 -1,1 -2,8 0 0 N 994,1 10
17.11.2017 20:00:00 -1,0 -2,3 5 3 WSW 993,9 10
17.11.2017 19:00:00 -0,7 -1,5 5 3 SSW 993,7 10
17.11.2017 18:00:00 0,0 -1,4 9 5 WSW 993,7 10
17.11.2017 17:00:00 0,4 -1,0 11 6 WSW 993,5 10
17.11.2017 16:00:00 1,1 -0,5 16 9 W 993,2 10
17.11.2017 15:00:00 0,7 0,0 9 5 WNW 992,7 10
17.11.2017 14:00:00 1,2 0,2 13 7 W 992,4 10
17.11.2017 13:00:00 0,8 -0,5 24 13 W 992,3 10
17.11.2017 12:00:00 1,2 -0,4 21 11 W 991,9 10

tt = Température de l'air
td = dewpoint
ff = Vitesse du vent
dd = Direction du vent
ppp = reduced air pressure
vv = visibility

stations d'obs. à proximité